INSAT-3D

Last updated on Sun Jun 21 2026 00:02:46 GMT+0000 (Coordinated Universal Time)

1 39216U 13038B 26171.27504292 -.00000345 00000+0 00000+0 0 9995 2 39216 1.9351 82.5055 0000638 326.5441 87.9271 1.00267986 47115
UTC large
Height (km)
Speed (km/s)
/
Latitude / Longitude
Inclination (degrees)
Orbital Period (minutes)
Azimuth
Elevation
Range (km)
Doppler Factor

Next 0 passes for location: London (51.5072 / 0.1276)

No passes found over London.
INSAT-3D